Weather History for Albany, NY

Change the Weather History Date:

Tuesday, January 22, 2013

  Actual Average Record
Temperature  
Mean Temperature 14 °F 22 °F  
Max Temperature 20 °F 30 °F 62 °F (1906)
Min Temperature 7 °F 14 °F -20 °F (1984)
Degree Days  
Heating Degree Days 51 43  
Month to date heating degree days 823 937  
Since 1 July heating degree days 3085 3472  
Cooling Degree Days 0 0  
Month to date cooling degree days 0 0  
Year to date cooling degree days 0 0  
Moisture  
Dew Point 3 °F    
Average Humidity 57    
Maximum Humidity 80    
Minimum Humidity 34    
Precipitation  
Precipitation 0.02 in 0.09 in 1.18 in (1891)
Month to date precipitation 0.48 1.84  
Year to date precipitation 0.48 1.84  
Snow  
Snow 0.30 in 0.50 in 12.90 in (1987)
Month to date snowfall 3.8 12.7  
Since 1 July snowfall 17.2 29.2  
Snow Depth 0.00 in    
Sea Level Pressure  
Sea Level Pressure 30.01 in    
Wind  
Wind Speed 12 mph (WNW)    
Max Wind Speed 26 mph    
Max Gust Speed 32 mph    
Visibility 7 miles    
Events Snow    
T = Trace of Precipitation, MM = Missing Value Source: NWS Daily Summary

Daily Weather History Graph

Daily Weather History Graph

Search for Another Location

Airport:

Trip Planner

Search our weather history database for the weather conditions in past years. The results will help you decide how hot, cold, wet, or windy it might be!

Date:

Astronomy

Jan. 22, 2013 Rise Set
Actual Time 7:18 AM EST 4:55 PM EST
Civil Twilight 6:47 AM EST 5:26 PM EST
Nautical Twilight 6:13 AM EST 6:00 PM EST
Astronomical Twilight 5:39 AM EST 6:34 PM EST
Moon 1:15 PM EST (1/22) 3:38 AM EST (1/22)
Length of Visible Light 10h 38m
Length of Day
9h 37m
Waxing Gibbous, 82% of the Moon is Illuminated
Jan 22
Waxing Gibbous
Jan 26
Full
Feb 3
Last Quarter
Feb 10
New
Feb 17
First Quarter

Hourly Weather History & Observations

Time (EST) Temp. Windchill Dew Point Humidity Pressure Visibility Wind Dir Wind Speed Gust Speed Precip Events Conditions
12:51 AM 18.0 °F 8.7 °F 12.0 °F 78% 29.81 in 10.0 mi WSW 6.9 mph - 0.00 in   Partly Cloudy
1:51 AM 15.8 °F 10.2 °F 10.4 °F 79% 29.81 in 10.0 mi NW 3.5 mph - N/A   Partly Cloudy
2:51 AM 18.0 °F 3.6 °F 9.0 °F 68% 29.84 in 10.0 mi WNW 15.0 mph 20.7 mph N/A   Mostly Cloudy
3:04 AM 17.6 °F 3.2 °F 8.6 °F 68% 29.83 in 10.0 mi West 15.0 mph 19.6 mph N/A   Mostly Cloudy
3:51 AM 16.0 °F 2.9 °F 8.1 °F 71% 29.87 in 10.0 mi West 11.5 mph - N/A   Scattered Clouds
4:51 AM 16.0 °F 2.3 °F 7.0 °F 68% 29.88 in 10.0 mi WNW 12.7 mph - N/A   Partly Cloudy
5:51 AM 15.1 °F -0.1 °F 1.0 °F 54% 29.91 in 10.0 mi West 15.0 mph - N/A   Partly Cloudy
6:51 AM 14.0 °F -0.2 °F -2.0 °F 49% 29.93 in 10.0 mi West 12.7 mph - N/A   Scattered Clouds
7:51 AM 14.0 °F 2.0 °F -2.9 °F 47% 29.95 in 10.0 mi West 9.2 mph - N/A   Scattered Clouds
8:51 AM 15.1 °F 0.5 °F -4.0 °F 43% 29.97 in 10.0 mi West 13.8 mph - N/A   Scattered Clouds
9:51 AM 17.1 °F 0.1 °F -6.0 °F 36% 29.99 in 10.0 mi WNW 20.7 mph 27.6 mph N/A   Scattered Clouds
10:51 AM 18.0 °F 2.6 °F -6.0 °F 35% 29.99 in 10.0 mi WNW 17.3 mph 25.3 mph N/A   Scattered Clouds
11:51 AM 18.0 °F 1.3 °F -5.1 °F 36% 29.98 in 10.0 mi West 20.7 mph 26.5 mph N/A   Scattered Clouds
12:51 PM 19.9 °F 5.7 °F -5.1 °F 33% 29.97 in 10.0 mi West 16.1 mph 23.0 mph N/A   Scattered Clouds
1:51 PM 17.1 °F 1.0 °F -2.0 °F 43% 29.98 in 10.0 mi WNW 18.4 mph 27.6 mph N/A   Mostly Cloudy
2:51 PM 17.1 °F 3.6 °F -0.9 °F 45% 30.00 in 10.0 mi WNW 12.7 mph 24.2 mph N/A   Mostly Cloudy
3:51 PM 16.0 °F 0.1 °F 1.0 °F 52% 30.01 in 10.0 mi West 17.3 mph 27.6 mph N/A   Mostly Cloudy
4:25 PM 15.8 °F 2.1 °F 6.8 °F 68% 30.01 in 1.5 mi WNW 12.7 mph - 0.00 in Snow Light Snow
4:27 PM 15.8 °F 2.7 °F 6.8 °F 68% 30.01 in 0.5 mi West 11.5 mph - 0.00 in Snow Light Snow
4:42 PM 14.0 °F 2.0 °F 8.6 °F 79% 30.02 in 9.0 mi WNW 9.2 mph - 0.00 in Snow Light Snow
4:51 PM 14.0 °F 2.9 °F 7.0 °F 74% 30.04 in 9.0 mi West 8.1 mph - 0.00 in Snow Light Snow
5:00 PM 14.0 °F -1.4 °F 6.8 °F 73% 30.03 in 1.0 mi NW 15.0 mph 19.6 mph 0.00 in Snow Light Snow
5:05 PM 14.0 °F 0.5 °F 6.8 °F 73% 30.04 in 4.0 mi WNW 11.5 mph - 0.00 in Snow Light Snow
5:51 PM 14.0 °F 2.9 °F 3.9 °F 64% 30.08 in 10.0 mi WNW 8.1 mph - 0.00 in   Overcast
6:01 PM 12.2 °F -1.8 °F 5.0 °F 73% 30.06 in 1.0 mi NW 11.5 mph 18.4 mph 0.00 in Snow Light Snow
6:10 PM 12.2 °F -1.8 °F 6.8 °F 79% 30.06 in 5.0 mi WNW 11.5 mph - 0.00 in Snow Light Snow
6:30 PM 12.2 °F -2.5 °F 6.8 °F 79% 30.08 in 7.0 mi NW 12.7 mph - 0.00 in Snow Light Snow
6:33 PM 12.2 °F -1.0 °F 6.8 °F 79% 30.08 in 1.0 mi WNW 10.4 mph - 0.00 in Snow Light Snow
6:51 PM 12.0 °F -2.0 °F 6.1 °F 77% 30.10 in 1.0 mi WNW 11.5 mph - 0.00 in Snow Light Snow
7:04 PM 12.2 °F -2.5 °F 5.0 °F 73% 30.09 in 1.0 mi WNW 12.7 mph - 0.00 in Snow Light Snow
7:19 PM 12.2 °F -1.0 °F 5.0 °F 73% 30.09 in 2.0 mi WNW 10.4 mph - 0.00 in Snow Light Snow
7:21 PM 12.2 °F -2.5 °F 5.0 °F 73% 30.09 in 1.5 mi West 12.7 mph - 0.00 in Snow Light Snow
7:51 PM 12.0 °F -0.4 °F 7.0 °F 80% 30.11 in 1.0 mi West 9.2 mph - 0.00 in Snow Light Snow
8:43 PM 10.4 °F -1.5 °F 6.8 °F 85% 30.10 in 2.5 mi NW 8.1 mph - 0.02 in Snow Light Snow
8:51 PM 10.9 °F 0.2 °F 5.0 °F 77% 30.12 in 4.0 mi WNW 6.9 mph - 0.02 in Snow Light Snow
9:00 PM 10.4 °F 0.8 °F 5.0 °F 79% 30.10 in 6.0 mi NW 5.8 mph - 0.00 in Snow Light Snow
9:51 PM 9.0 °F -0.9 °F -2.9 °F 59% 30.13 in 10.0 mi WSW 5.8 mph - 0.00 in   Scattered Clouds
10:51 PM 8.1 °F -3.2 °F -5.1 °F 55% 30.14 in 10.0 mi SW 6.9 mph - N/A   Scattered Clouds
11:51 PM 8.1 °F -4.3 °F -2.9 °F 61% 30.15 in 10.0 mi WNW 8.1 mph - 0.00 in Snow Light Snow